Wind_Speed
2 1 2 4 6 7 7 7 7 5 5 4 2 4 5 5 5 6 6 6 1 2 3 3 5 6 9 10 10 10 7 7 7 7 6 7 8 9 8 8 8 8 6 6 10 14 16 16 15 16 18 19 17 17 21 25 25 24 23 21 19 19 19 18 18 17 17 16 14 12 10 9 8 7 6 5 4 4 5 6 6 7 6 6 6 6
3 2 7 9 10 9 5 4 3 2 3 3 3 4 4 4 6 6 5 7 3 4 4 0 8 6 8 10 9 9 8 8 9 10 9 10 10 8 9 10 9 6 3 5 8 12 17 17 16 18 20 20 19 20 24 27 27 25 23 22 22 22 21 20 19 18 18 17 15 13 12 11 10 9 8 7 7 6 6 6 6 6 6 7 7 8
2 3 11 9 6 4 2 4 5 3 2 2 2 3 2 3 4 7 5 7 5 4 2 1 9 5 3 6 7 10 11 9 11 14 14 14 13 10 10 10 8 7 5 5 7 10 16 18 17 19 21 21 22 24 26 28 27 25 23 24 25 25 23 21 19 18 18 17 15 14 13 13 12 11 9 8 9 9 8 8 7 7 7 7 7 7
1 7 9 4 6 5 3 2 4 1 1 2 3 2 3 3 1 3 5 8 6 3 2 4 6 1 3 0 5 7 5 3 7 11 9 11 12 11 12 10 11 11 9 8 8 8 12 15 17 20 22 23 23 24 26 28 28 27 26 27 27 26 24 21 19 18 18 17 16 14 15 14 13 11 10 9 10 9 9 8 7 6 5 6 6 5
7 9 4 4 6 6 3 2 3 1 2 3 4 4 3 4 3 4 4 6 6 5 3 6 6 4 3 2 6 6 3 3 4 7 6 7 7 7 8 9 10 11 10 10 10 10 10 12 16 19 22 23 23 25 28 30 30 30 29 28 27 25 23 21 20 19 19 19 18 17 16 15 14 14 12 11 11 9 9 8 6 5 4 5 6 5
8 7 2 1 2 6 4 4 4 6 3 4 4 7 7 5 4 4 4 4 5 5 4 5 5 3 5 1 5 4 1 2 5 7 8 7 6 6 8 8 8 7 6 6 7 8 8 10 15 19 22 24 24 27 30 32 32 31 30 28 27 25 23 21 19 19 19 19 19 19 19 18 18 18 15 13 11 10 8 8 7 5 5 6 6 6
5 4 1 3 5 5 5 5 5 7 5 2 5 7 7 6 2 4 2 4 3 1 3 4 5 2 6 4 5 3 4 6 5 7 7 6 6 7 8 8 7 7 6 4 5 5 7 11 16 19 23 26 26 27 30 31 32 31 30 30 29 26 24 22 20 18 18 18 19 20 20 19 18 17 15 13 11 10 8 8 8 7 7 6 6 6
3 4 4 1 3 5 4 4 5 8 7 3 5 6 7 5 2 1 3 4 2 3 3 5 4 2 3 5 6 2 4 5 6 8 6 6 8 7 7 8 8 8 7 6 7 7 8 13 17 20 24 26 27 28 29 30 32 32 32 32 30 28 25 23 20 18 18 19 20 21 19 17 16 14 13 12 11 11 10 10 9 9 8 7 6 6
2 3 2 2 3 3 4 6 8 9 5 6 5 7 5 5 4 3 5 3 1 1 2 6 3 2 3 5 4 1 5 4 7 9 9 9 10 8 7 7 7 7 7 7 7 7 9 14 19 22 24 25 27 28 30 31 32 32 33 32 30 27 24 22 20 18 19 20 21 21 20 17 15 12 11 11 11 10 10 10 10 9 8 8 7 6
3 5 5 5 4 5 6 6 9 10 4 5 4 6 4 4 4 5 5 3 3 4 2 6 3 2 3 5 4 2 4 4 7 8 9 11 10 9 7 7 7 7 6 6 6 6 8 13 18 20 23 25 26 28 30 30 31 32 31 28 24 20 18 17 17 18 20 22 23 23 22 19 16 14 12 12 10 9 9 9 9 9 8 8 8 7
5 3 3 4 4 6 6 3 6 8 5 3 5 5 5 5 5 4 2 4 5 2 5 7 2 3 1 5 3 1 1 4 5 6 7 9 8 8 8 8 8 7 6 7 6 5 6 10 15 19 23 23 23 25 26 27 29 27 22 19 16 14 15 17 18 20 23 25 26 25 23 21 19 18 16 15 12 11 10 9 8 8 8 8 9 10
6 3 2 3 3 4 3 3 2 1 2 4 4 4 3 2 4 4 4 4 4 2 6 6 1 5 2 5 4 4 4 4 6 6 7 9 9 8 7 7 8 7 6 6 6 6 6 7 11 16 19 20 21 23 23 25 23 18 16 19 19 19 22 24 24 25 27 28 27 25 24 22 21 20 19 17 16 15 13 12 10 9 8 9 10 12
4 3 3 5 3 4 5 2 1 5 5 5 5 5 4 1 3 1 3 1 2 3 4 3 0 2 3 6 5 6 7 6 6 7 6 7 9 9 8 8 7 6 6 7 6 6 6 6 9 14 17 18 20 22 22 21 18 17 19 24 26 28 29 28 27 29 30 29 27 24 23 23 21 21 20 18 17 17 16 14 13 11 9 10 11 12
3 5 5 4 4 2 6 5 2 1 1 4 5 4 4 3 3 1 3 1 1 3 3 2 1 1 3 3 5 7 7 6 3 3 2 4 5 6 6 5 5 5 5 6 5 6 6 6 10 13 16 17 18 20 21 19 18 20 24 26 30 32 31 31 31 31 29 25 24 22 21 21 20 19 20 18 19 19 18 16 14 12 11 11 12 12
3 3 3 3 2 1 4 5 5 5 3 3 4 5 4 4 4 3 3 3 3 2 2 3 1 2 2 3 6 6 5 3 4 4 6 9 7 7 7 7 7 5 4 4 4 3 2 5 10 12 14 16 18 20 20 19 20 23 25 27 31 31 33 33 28 25 24 22 22 20 20 20 16 17 20 19 19 20 19 16 14 13 12 11 12 13
4 3 6 4 2 2 2 2 4 6 2 2 2 5 3 4 5 2 2 5 4 2 0 2 2 2 2 3 6 5 4 6 7 6 9 10 9 9 10 9 8 8 7 5 4 5 4 3 7 11 14 16 18 20 21 20 21 24 26 27 31 32 31 23 15 16 18 19 19 18 20 22 19 21 23 20 19 20 18 16 14 13 12 11 12 14
2 3 6 5 2 2 3 3 3 3 2 1 1 3 3 4 7 5 1 1 4 3 1 1 1 3 2 2 5 6 6 8 7 6 7 8 10 11 9 8 9 9 6 5 4 4 4 5 6 8 13 17 19 21 22 21 21 24 26 27 30 28 20 20 18 18 22 22 19 19 22 24 24 26 24 21 20 20 18 15 13 13 12 11 12 14
4 1 6 2 2 1 1 3 5 3 4 3 2 5 2 3 5 5 2 3 5 2 3 2 1 3 1 0 5 6 5 6 7 6 5 5 8 10 7 7 9 8 8 3 2 3 3 5 7 6 10 16 21 23 25 25 23 24 25 26 28 20 18 26 28 27 27 26 22 21 23 25 28 27 23 20 19 19 17 15 14 13 12 11 13 14
4 1 7 3 2 4 5 6 4 4 2 3 4 3 3 3 1 2 3 2 2 2 3 3 2 1 2 2 3 3 1 3 4 4 5 5 5 7 8 8 7 7 7 5 3 3 3 5 7 7 7 11 16 20 23 23 20 19 18 19 22 17 18 26 28 27 29 27 23 24 25 26 29 27 23 20 19 18 16 15 14 14 13 13 14 14
3 3 4 4 2 2 5 5 2 4 5 3 2 2 2 3 4 3 3 3 4 3 2 1 2 1 4 4 4 5 4 5 4 2 4 5 4 4 7 7 6 6 5 4 3 3 3 5 7 7 7 7 9 12 16 17 15 13 13 14 16 17 19 24 25 28 32 29 26 26 26 26 29 28 24 21 20 19 16 14 15 14 13 14 15 15
3 3 3 5 3 2 2 0 3 2 2 3 3 4 3 2 2 2 1 2 4 4 3 2 0 4 5 4 4 6 6 7 8 6 4 4 4 5 6 6 5 4 4 4 4 4 4 6 9 8 6 6 7 8 11 13 11 11 11 13 14 15 19 23 26 30 33 32 30 26 24 27 28 27 24 22 20 19 15 14 16 16 14 15 16 16
2 3 3 2 3 2 1 2 1 3 3 4 3 1 1 2 3 4 1 1 2 4 4 5 2 6 5 1 3 4 3 5 6 7 6 4 5 5 5 6 5 3 3 3 3 4 4 6 8 8 7 7 8 8 9 11 10 10 11 12 13 14 19 24 28 30 32 33 32 26 23 25 27 25 24 22 21 19 16 14 18 20 19 18 17 17
3 4 3 1 1 1 2 3 3 2 5 6 3 2 3 2 3 5 4 3 1 3 3 4 3 5 5 2 3 2 2 1 3 5 6 5 5 5 5 6 5 3 3 4 3 2 4 6 7 7 7 7 7 7 7 8 8 8 10 13 15 16 19 23 26 29 31 32 31 26 21 22 24 24 23 24 24 22 17 16 19 22 23 21 20 19
2 4 3 1 3 3 4 5 4 3 5 6 3 2 3 2 2 4 5 3 3 3 2 4 2 5 5 5 4 2 5 4 2 2 5 6 4 4 5 6 5 4 3 3 3 3 5 7 7 7 6 5 5 6 6 6 5 6 7 12 15 17 18 20 23 26 28 28 27 24 22 23 24 24 25 26 26 23 19 18 20 23 24 23 22 21
1 1 3 3 1 2 4 5 5 5 4 3 2 4 3 3 4 3 1 3 3 2 4 5 2 6 4 5 6 5 6 6 5 4 4 5 5 4 4 4 5 5 4 4 4 4 5 5 5 6 5 4 4 5 6 5 5 6 7 9 13 16 17 18 20 23 24 23 23 24 24 24 25 27 26 26 26 24 20 20 22 23 23 23 23 23
2 2 3 4 4 4 2 2 2 1 2 2 2 5 5 4 5 2 2 4 2 2 3 5 4 5 4 7 8 7 5 5 4 4 4 4 5 6 5 5 5 6 6 6 5 5 4 4 5 5 5 5 5 5 6 6 5 6 7 9 10 13 16 17 18 20 21 21 22 25 26 26 27 27 26 26 26 25 24 23 24 24 23 23 24 26
4 2 2 4 4 5 5 4 4 3 3 1 1 4 5 4 4 4 4 3 3 3 3 1 3 2 4 8 8 8 6 3 2 3 4 3 5 5 5 6 5 5 5 5 5 5 4 4 4 5 5 6 5 5 5 6 5 5 8 9 10 11 12 13 15 17 19 20 22 24 26 27 26 25 25 24 24 25 26 25 25 26 26 27 27 27
5 3 2 5 4 1 3 2 1 4 5 3 1 4 5 4 5 6 4 2 4 5 1 4 1 5 4 7 7 8 7 4 4 4 2 1 1 1 1 2 3 4 3 4 5 5 5 4 4 5 7 8 6 5 5 6 5 5 6 8 10 10 11 11 12 14 18 21 23 24 25 26 26 25 23 21 21 21 21 23 26 27 28 28 26 27
6 1 1 4 5 3 3 3 5 6 6 4 4 4 4 4 6 6 2 0 4 6 3 2 6 6 3 7 7 7 6 3 4 5 5 5 5 5 6 6 6 6 6 5 5 4 4 3 1 1 5 8 9 8 7 7 6 7 7 8 9 10 10 11 12 13 15 19 21 23 23 23 24 23 23 22 21 19 19 23 25 23 23 22 20 21
4 0 1 3 5 5 4 3 7 9 7 5 5 4 4 6 7 6 3 3 7 7 4 7 11 7 3 5 6 6 5 2 5 7 8 9 8 8 8 8 8 7 7 6 7 6 6 5 5 5 2 2 6 10 11 10 10 9 10 10 11 11 11 12 13 14 15 17 18 20 21 21 21 21 21 22 21 20 22 24 21 18 19 19 18 19
3 2 1 3 4 3 4 4 8 10 9 7 6 5 5 7 7 6 4 4 7 7 4 7 11 6 4 4 5 5 4 6 10 10 10 9 8 9 10 9 9 8 8 7 7 7 7 7 8 9 9 6 2 5 9 11 12 11 11 12 12 13 13 14 15 16 18 19 19 19 19 20 20 20 20 21 22 23 25 23 20 20 22 20 17 17
4 2 1 5 4 0 2 4 6 9 10 8 6 5 5 5 5 4 3 3 3 6 5 7 7 2 4 5 5 5 9 12 12 10 9 8 8 9 10 10 9 9 9 8 8 8 8 8 9 11 13 14 11 5 3 6 9 11 11 11 11 11 11 11 12 13 15 17 17 17 17 18 19 19 21 22 22 23 24 23 21 21 21 20 16 14
3 4 2 4 4 2 3 1 3 5 7 3 3 2 2 4 6 5 5 6 3 4 5 4 4 2 4 4 4 7 10 11 9 8 7 7 8 9 9 8 8 8 8 8 7 8 8 8 10 13 15 18 18 15 10 4 3 6 8 8 8 9 9 9 8 8 10 11 12 13 14 15 17 19 20 21 20 19 19 17 16 15 14 13 11 10
3 4 3 2 4 3 5 3 4 3 2 3 5 2 2 4 8 9 6 6 6 5 4 3 3 2 3 4 5 7 8 7 6 6 5 6 7 8 8 8 7 7 7 6 6 6 7 10 13 16 19 20 21 20 18 15 10 3 4 7 7 7 8 8 7 7 7 7 8 9 12 13 15 17 17 16 15 14 13 11 10 8 7 6 5 6
3 4 3 2 4 3 2 5 4 2 3 1 3 3 4 6 12 14 9 6 6 6 6 6 5 4 3 4 4 4 6 6 5 6 7 7 6 7 8 8 7 7 7 7 6 6 8 10 13 17 20 20 20 21 22 22 21 15 5 2 4 5 5 5 4 4 5 5 5 6 9 11 12 13 13 12 11 10 9 8 7 6 5 4 4 4
4 3 3 2 3 2 1 3 2 4 1 2 5 3 3 2 6 11 9 7 6 4 4 5 3 3 3 4 3 1 2 3 5 5 6 7 6 6 7 7 6 6 6 6 8 10 12 11 10 12 13 14 16 18 20 21 22 21 17 10 5 4 4 3 2 1 2 4 5 5 7 9 10 11 10 10 10 10 9 8 7 6 5 4 4 4
6 3 3 2 2 3 3 2 1 0 0 1 2 1 1 2 1 4 5 2 4 3 1 2 3 4 4 4 5 4 1 3 5 5 6 6 6 5 5 5 6 7 8 9 11 15 17 15 12 11 9 9 11 13 14 17 18 20 20 18 13 10 7 7 8 7 4 0 3 5 6 7 8 10 11 12 13 11 9 8 6 5 3 2 1 1
4 3 4 4 2 3 5 3 2 1 3 5 5 4 2 3 3 3 6 1 3 4 2 1 3 5 4 4 6 5 3 4 3 4 6 7 6 6 6 7 8 10 11 13 14 17 19 19 17 15 14 13 13 11 11 13 14 15 16 16 14 12 10 8 9 11 9 6 3 1 6 8 9 11 13 13 12 11 9 7 6 4 3 1 2 2
6 3 3 4 2 3 5 4 3 3 4 5 5 6 5 4 3 4 5 0 3 4 3 2 5 5 4 3 4 4 4 3 2 4 5 6 7 6 6 6 10 13 13 14 14 15 16 17 17 17 17 17 17 15 13 14 14 13 13 14 13 12 9 5 4 5 5 4 5 4 2 8 11 13 13 12 11 9 7 6 5 3 3 5 6 5
7 4 4 4 2 2 4 3 2 3 2 3 5 6 6 2 4 6 2 4 3 4 3 3 6 5 4 4 3 4 4 2 3 4 5 6 7 8 7 7 9 11 12 13 13 13 14 15 15 16 16 16 17 17 15 14 14 12 12 12 11 11 11 9 11 9 5 3 3 3 1 2 6 9 11 11 10 8 7 7 6 4 5 7 7 7
4 3 2 3 3 2 4 3 1 1 2 3 4 6 6 2 5 4 4 6 3 0 1 4 5 3 4 4 4 2 1 3 4 4 5 5 6 8 10 12 13 13 13 13 13 14 14 14 14 14 14 15 15 16 15 15 14 14 14 14 13 13 12 11 11 12 10 7 6 5 3 3 3 5 6 7 7 6 6 6 5 6 7 8 8 8
3 3 2 2 2 2 3 4 2 0 1 4 4 4 4 1 3 3 3 3 3 3 2 3 3 3 3 3 1 2 3 4 4 5 6 6 5 6 9 13 15 16 17 17 17 17 16 16 15 14 14 15 16 16 15 15 15 15 15 15 15 16 16 15 13 13 13 11 10 8 8 7 7 7 6 5 5 4 4 4 4 5 6 7 9 10
1 1 2 2 2 2 3 3 2 2 2 5 4 3 4 2 3 2 1 1 2 4 4 3 2 2 2 1 2 4 5 6 6 6 6 7 7 9 11 14 15 16 19 19 20 20 18 18 18 17 16 16 16 17 16 14 14 14 14 15 15 16 18 18 17 16 15 13 12 10 9 9 10 10 9 8 6 5 4 4 3 3 4 5 7 8
2 1 1 0 1 1 2 2 1 1 3 5 3 3 3 2 2 3 2 1 0 2 3 3 1 1 2 1 3 4 4 5 6 6 7 7 8 10 13 16 16 18 20 21 22 22 21 20 21 21 20 19 17 17 16 15 14 14 14 15 14 14 15 17 18 18 18 16 16 14 13 12 12 13 12 10 8 7 6 5 5 5 5 5 6 8
2 2 3 2 2 2 2 2 2 2 2 4 4 3 2 2 1 2 3 1 0 1 2 3 1 1 1 1 2 3 3 5 6 6 6 6 7 8 12 15 17 18 20 21 22 22 22 22 22 23 23 22 20 19 18 17 15 15 17 17 16 14 13 13 15 17 18 19 19 18 18 18 17 16 16 14 12 11 10 8 8 9 8 7 7 8
2 3 4 4 3 4 4 3 2 2 1 3 3 2 1 1 0 2 3 2 1 1 1 3 2 1 1 2 1 2 4 5 6 6 6 5 6 9 12 14 15 16 17 19 20 22 23 23 23 22 22 23 22 21 19 18 17 18 19 19 18 16 14 13 13 13 15 18 21 22 22 22 20 18 17 16 15 14 13 12 11 11 10 9 9 8
2 2 4 4 4 3 3 2 3 3 2 2 0 2 2 2 1 1 3 3 3 2 1 1 1 1 1 0 2 3 5 5 4 5 5 5 5 8 11 13 14 15 16 17 19 22 24 23 22 22 22 24 25 23 21 21 20 19 20 19 18 17 16 15 15 14 13 13 15 18 20 21 20 18 17 16 14 14 13 13 12 11 11 10 10 10
2 3 4 3 2 2 2 3 4 3 3 2 0 1 3 2 2 2 2 2 2 2 2 2 2 2 2 3 4 4 4 5 4 5 5 5 6 9 12 14 15 17 18 19 20 21 22 22 23 23 23 25 26 25 25 25 23 21 21 20 19 18 17 17 17 17 14 12 11 11 13 15 17 17 15 14 14 13 13 13 13 13 12 11 11 12
2 3 2 3 3 2 1 1 1 1 2 3 2 3 4 2 2 1 1 2 2 2 3 4 5 5 5 4 4 4 4 5 5 5 6 6 7 10 13 15 17 18 20 21 21 21 21 22 24 25 26 27 26 26 26 27 27 24 22 21 21 20 20 19 18 18 18 17 15 14 12 11 11 12 13 13 13 13 13 13 13 13 12 12 13 13
3 2 1 4 4 1 3 2 3 3 2 4 2 2 4 3 4 3 1 1 1 1 2 3 5 6 6 5 5 4 4 5 7 8 7 7 9 13 15 17 18 20 21 22 23 23 23 23 24 25 27 28 27 26 27 29 29 28 25 22 21 20 21 21 20 20 20 19 18 17 16 15 12 10 11 12 13 13 13 13 14 14 14 14 15 14
2 3 3 4 3 4 5 5 4 3 2 3 3 3 4 3 4 4 3 2 1 2 3 4 2 3 4 5 5 5 5 6 9 10 8 10 14 16 17 18 19 20 21 22 22 23 23 23 23 24 26 27 27 27 28 29 31 32 30 27 23 20 20 20 20 21 21 20 20 20 19 18 16 14 13 13 13 14 15 15 14 14 15 16 16 15
Wind_Direction
118 133 257 223 220 218 211 194 193 198 163 163 204 221 253 267 273 273 267 288 293 173 253 186 136 126 159 172 166 158 150 163 186 186 169 165 176 188 195 200 196 195 199 175 163 164 168 169 170 179 189 192 193 197 199 197 196 195 193 191 193 195 196 193 191 189 182 177 177 176 175 175 180 187 186 183 189 200 202 200 203 205 210 207 191 184
78 153 235 224 219 215 194 176 196 210 169 181 212 224 259 248 261 274 272 309 8 109 311 97 127 141 160 162 163 150 156 177 175 176 181 181 184 191 198 199 191 185 161 145 158 162 166 171 171 175 184 188 183 182 187 187 187 189 189 189 188 189 189 187 186 183 180 180 179 173 167 162 160 161 155 143 137 134 139 145 158 167 163 164 161 156
31 237 243 231 207 196 155 138 156 204 187 156 178 181 255 255 279 297 301 324 1 94 323 104 125 141 176 169 177 171 178 191 183 183 184 180 183 191 197 194 183 175 162 166 173 169 173 174 171 170 176 182 180 177 178 179 179 180 181 181 179 180 183 183 184 183 179 178 180 176 166 161 158 155 150 141 135 131 133 132 136 145 143 148 155 152
253 247 239 195 136 159 231 166 137 149 16 161 188 171 257 274 313 298 310 331 348 56 111 112 103 43 333 8 219 215 198 178 186 191 186 182 186 192 196 190 180 180 177 180 182 177 179 176 169 168 170 175 176 174 173 172 173 173 173 174 174 177 180 181 181 180 177 175 176 175 169 167 162 158 156 148 143 143 146 145 146 152 155 162 162 150
241 247 219 117 125 156 213 251 158 195 302 259 212 168 207 261 227 226 296 332 342 8 60 80 58 336 356 107 221 259 342 68 161 183 192 198 199 200 205 199 190 188 181 182 185 181 180 173 168 169 171 173 175 176 174 172 172 172 173 174 176 178 179 180 180 180 178 175 173 169 162 159 154 154 157 153 150 153 155 155 159 164 179 185 168 148
254 257 187 185 195 149 176 232 199 181 217 292 243 193 191 207 232 264 335 19 25 2 350 57 65 303 319 267 220 248 251 160 164 190 201 196 194 195 201 202 197 197 192 190 192 184 172 162 164 170 173 174 179 180 176 175 176 176 177 179 179 178 178 179 180 183 181 180 179 174 166 160 153 151 155 156 154 157 158 153 152 149 159 169 159 153
260 282 110 223 226 157 166 235 225 172 152 291 242 196 169 150 181 294 353 68 84 293 312 47 110 226 311 289 249 253 209 198 187 204 207 192 199 203 201 196 185 191 195 189 189 177 165 163 166 175 178 179 182 181 178 178 178 179 181 182 181 178 177 178 180 184 186 187 189 187 183 179 171 163 160 157 153 156 155 146 144 143 144 150 154 158
243 318 26 122 195 150 161 231 221 156 133 238 228 147 125 133 166 238 96 97 171 219 323 10 96 139 306 262 256 257 174 203 215 211 211 203 207 208 204 197 183 188 188 179 182 175 175 178 177 179 181 181 183 181 179 179 179 182 183 182 180 178 178 180 182 185 191 193 192 191 191 189 186 181 168 157 151 150 150 145 142 142 141 144 153 160
231 292 298 135 122 153 193 215 186 149 149 243 208 130 129 161 161 124 99 90 356 53 325 326 39 112 273 270 281 76 141 202 235 220 212 208 205 201 201 197 184 184 181 178 183 181 183 185 183 182 180 181 185 183 182 181 180 182 183 181 179 178 179 181 183 186 191 194 192 191 191 186 182 182 173 163 156 151 152 149 143 142 141 141 147 158
248 236 210 150 146 205 221 215 169 157 191 232 155 105 75 84 90 85 98 100 32 50 239 286 342 115 272 290 308 20 114 187 241 239 223 211 201 189 186 187 180 176 174 179 183 184 191 190 184 180 179 184 187 187 185 183 182 183 183 179 172 171 174 178 183 187 189 192 192 191 189 182 175 173 171 167 167 169 171 165 155 150 144 139 139 149
286 282 174 154 183 207 211 187 159 171 189 144 97 71 54 43 46 54 58 82 66 1 250 261 271 123 264 288 270 257 141 195 234 255 237 215 198 181 179 179 178 179 172 170 167 159 172 185 181 178 182 186 189 190 188 186 185 182 172 158 149 158 174 182 188 190 191 191 191 191 190 183 174 172 171 170 177 188 192 187 177 166 157 148 141 143
327 334 223 247 214 162 141 131 118 20 59 89 79 77 96 12 19 33 351 45 90 260 257 256 264 106 163 265 268 255 263 245 223 231 226 203 182 172 176 175 177 177 160 153 152 140 142 165 176 181 184 186 190 192 191 190 182 162 147 149 156 171 186 194 197 196 193 190 190 190 191 186 179 175 175 176 183 191 195 195 190 182 172 162 153 150
312 249 273 303 257 142 113 132 315 4 33 82 87 77 99 40 13 20 305 8 154 237 248 242 70 104 212 245 274 284 290 282 231 225 227 194 175 169 170 168 164 156 147 148 150 153 158 166 177 185 185 187 193 195 195 188 167 151 160 170 176 185 192 195 198 196 192 188 187 188 191 189 182 180 180 180 186 190 193 195 194 194 187 174 167 162
288 296 320 322 284 187 132 145 208 271 76 134 131 113 124 107 78 231 264 304 231 242 265 284 251 245 269 280 302 306 303 297 248 204 143 120 138 146 139 129 121 118 133 143 151 166 176 178 184 188 186 189 194 198 198 183 161 164 174 179 186 190 192 194 195 191 183 180 183 186 192 190 183 186 187 184 187 188 191 196 198 201 198 185 177 172
165 305 284 198 267 259 161 171 170 158 148 182 165 132 142 151 142 204 222 183 212 229 282 305 259 171 196 291 313 315 314 353 52 67 79 81 80 87 78 67 70 69 73 95 111 123 149 175 185 186 184 190 196 200 200 184 168 172 178 183 191 193 193 193 187 175 171 177 182 185 192 193 195 205 199 189 190 190 190 196 201 204 202 193 184 180
136 237 254 250 260 173 197 231 142 116 101 246 150 107 143 186 149 135 182 169 170 152 261 266 214 202 212 283 323 341 7 35 51 59 77 86 84 83 78 68 62 49 34 32 64 77 67 126 172 185 186 192 199 203 204 191 173 175 182 186 193 198 194 179 147 140 163 177 181 187 196 198 205 209 199 192 193 193 194 199 204 205 202 199 193 187
118 247 277 315 335 152 185 206 116 103 164 214 132 156 213 175 122 106 141 78 75 108 251 254 220 309 338 338 336 357 22 28 31 40 65 93 99 94 91 89 85 75 58 12 7 55 65 84 117 169 189 196 202 207 211 204 186 183 189 190 194 196 174 148 149 167 182 187 187 199 208 204 202 201 197 196 197 196 199 202 208 210 207 206 201 194
143 239 288 340 62 311 267 112 76 74 127 122 184 199 171 76 92 102 109 19 47 140 270 339 272 301 22 85 322 350 24 26 18 23 34 59 96 103 98 94 100 110 118 117 16 26 38 62 81 122 176 197 205 211 215 213 201 193 196 198 200 191 144 150 176 187 189 192 194 208 218 209 202 198 197 200 200 199 202 205 210 212 213 212 205 200
124 145 289 287 174 300 350 69 50 351 64 123 187 187 97 98 157 91 116 129 101 181 276 346 332 258 169 212 287 310 89 71 35 42 62 58 83 109 106 99 104 107 107 108 87 44 31 44 61 94 143 184 203 213 217 214 204 192 193 199 203 193 158 165 185 189 189 194 205 219 222 211 203 199 197 200 202 201 205 212 214 213 216 214 208 205
97 132 267 279 233 305 4 52 48 317 337 22 43 14 47 125 157 151 141 147 143 166 218 342 4 278 221 220 230 243 220 156 144 140 113 102 93 101 104 102 105 104 102 117 127 101 67 63 69 93 125 157 187 209 218 215 203 186 188 194 193 188 177 179 190 194 194 201 215 222 217 209 204 200 197 200 202 202 205 214 217 217 220 217 212 210
61 115 209 281 316 33 16 63 157 185 307 11 32 9 357 44 108 138 104 93 130 142 166 154 63 269 251 208 207 244 236 187 168 160 147 128 101 83 87 93 100 110 121 142 139 114 89 76 77 91 119 154 182 203 213 210 196 177 183 188 181 175 178 185 192 196 198 203 210 211 205 204 204 200 200 202 203 202 203 216 224 224 224 222 218 216
88 130 168 303 4 76 214 260 172 165 156 127 107 62 144 147 120 123 123 309 111 126 160 153 158 262 264 207 247 260 231 215 191 154 147 147 128 114 106 104 106 109 112 107 91 82 81 79 85 103 132 159 182 198 207 207 197 179 172 174 174 173 179 185 190 193 196 198 202 203 200 201 202 200 202 203 203 201 200 216 228 227 226 227 225 223
126 104 104 67 346 175 255 321 19 89 113 104 94 103 131 133 101 121 171 228 98 103 146 117 116 257 272 351 324 315 81 274 238 157 143 138 128 125 120 113 111 111 103 96 81 70 91 98 106 120 134 152 170 184 196 203 201 191 173 167 170 172 177 183 187 191 193 194 198 204 203 201 200 200 202 204 204 202 202 218 228 229 230 230 229 228
83 85 87 3 313 331 325 332 3 42 71 68 34 31 70 53 97 141 172 176 128 131 141 89 78 258 288 356 359 34 64 50 22 113 131 130 116 109 116 115 117 120 116 127 142 142 124 117 114 113 118 138 159 178 193 191 184 185 179 175 176 177 177 180 184 188 191 192 196 200 201 200 200 199 201 203 204 202 207 221 228 230 232 233 233 234
8 96 103 96 29 8 350 338 349 1 31 62 354 337 1 38 68 100 111 76 96 166 148 118 173 253 286 5 18 33 59 65 49 48 96 123 125 124 127 128 132 138 150 164 157 134 124 118 109 107 113 128 153 183 201 192 167 167 180 186 188 187 186 184 181 181 184 188 192 194 197 201 202 201 200 201 203 205 212 223 228 231 233 235 236 236
103 116 110 125 157 171 184 250 251 292 359 19 346 348 360 31 50 73 78 69 106 172 109 124 184 241 313 7 10 5 36 66 69 75 88 119 144 152 155 157 159 158 161 162 145 124 118 112 109 118 131 149 168 185 201 203 180 165 179 196 200 198 197 194 190 185 180 180 186 191 197 201 199 198 199 202 205 208 212 220 228 230 230 233 235 232
95 67 83 119 144 175 181 202 208 151 86 71 328 355 354 1 45 82 88 99 165 134 60 252 179 130 355 354 354 342 346 12 56 105 116 140 156 163 167 163 157 153 154 148 133 123 115 110 122 139 151 164 177 182 192 205 201 180 180 194 205 211 208 201 199 197 187 180 184 191 196 197 195 194 196 201 207 211 214 221 228 228 227 231 233 231
90 49 62 93 67 78 162 142 114 102 96 110 77 7 349 354 52 83 97 138 138 110 65 285 82 83 357 334 343 330 324 342 5 5 2 356 15 46 106 116 101 88 83 92 105 117 124 130 145 157 163 166 171 181 186 191 202 205 196 197 204 216 224 219 210 202 192 186 189 194 197 196 193 193 196 198 202 206 212 219 222 222 224 227 231 232
103 89 196 104 67 50 81 98 103 96 81 70 58 34 17 31 66 93 108 26 108 122 174 179 87 79 342 326 333 322 320 360 31 8 360 4 359 7 25 29 31 31 31 42 50 54 69 73 48 156 170 168 164 167 175 181 189 196 198 204 207 212 224 231 224 214 205 201 200 204 206 202 199 201 204 205 203 204 212 217 217 219 224 225 225 230
109 152 232 121 90 61 51 95 113 102 84 59 41 38 63 71 73 81 66 54 87 103 129 109 89 72 1 328 323 320 323 22 56 36 26 25 14 17 32 29 19 14 20 41 44 35 44 45 30 28 28 185 179 172 169 175 182 185 188 194 202 208 214 221 221 217 214 213 213 216 218 216 216 218 218 216 214 214 218 220 217 221 234 233 222 224
95 150 223 95 85 39 18 59 97 101 102 86 49 25 55 72 59 46 35 47 79 91 100 94 84 58 1 340 330 334 6 46 51 40 33 30 22 30 39 33 24 19 18 34 46 40 39 43 40 38 31 15 310 213 187 177 174 174 178 181 187 197 205 211 215 216 214 213 214 217 219 222 227 230 226 222 220 220 224 229 229 230 240 244 225 214
73 117 35 63 92 275 358 70 100 97 91 78 42 6 17 59 71 54 31 24 98 132 113 79 83 44 313 329 343 14 45 51 47 38 32 28 25 36 43 36 34 34 29 32 39 37 35 35 36 36 32 28 20 353 268 213 189 176 174 175 177 182 190 200 208 212 213 211 211 215 219 222 227 229 227 224 224 225 228 234 235 230 234 240 232 216
81 114 108 85 118 234 303 76 117 88 77 52 323 325 47 96 110 95 50 22 35 121 118 101 131 217 297 340 25 41 49 52 47 38 34 29 26 32 40 38 38 40 40 39 36 33 29 21 25 32 32 30 28 24 15 345 246 199 184 178 178 181 185 191 196 201 205 205 206 209 212 215 219 220 222 222 222 224 226 228 231 228 226 233 235 227
57 96 124 114 124 213 281 349 54 65 130 242 272 255 166 137 114 98 66 21 22 57 100 120 112 45 357 18 51 59 58 54 49 42 41 42 39 34 33 34 35 35 37 38 35 34 30 20 19 25 25 24 26 29 29 24 16 6 195 187 181 179 182 185 189 196 199 197 200 204 205 209 213 213 216 218 220 223 227 227 226 222 216 215 216 213
75 86 121 103 108 164 305 32 55 240 219 248 353 49 118 124 106 96 77 32 28 45 68 71 48 21 17 25 40 73 79 64 48 38 33 32 38 43 38 29 25 29 30 28 22 17 19 18 17 17 11 7 12 20 22 18 15 15 23 156 166 159 164 175 187 202 205 200 205 212 211 212 213 214 218 221 219 215 207 197 186 172 167 161 153 153
127 116 134 109 101 140 76 70 146 228 246 21 3 37 108 108 85 84 63 22 8 19 57 70 44 357 14 25 3 359 87 60 39 32 24 16 18 35 41 31 23 24 22 22 20 15 14 13 13 14 3 350 353 0 3 1 359 1 11 20 40 78 100 107 95 116 211 211 214 217 213 211 212 216 215 204 193 183 171 165 160 154 152 143 130 124
140 131 134 130 134 141 119 101 129 26 14 242 285 279 189 275 322 101 98 21 333 337 19 81 52 6 3 5 341 328 14 53 30 11 3 4 0 4 17 21 21 19 16 17 16 16 17 15 9 9 2 347 347 347 348 349 342 341 351 2 11 26 45 62 57 45 42 152 212 208 204 209 210 204 192 180 176 174 172 169 166 160 157 148 120 99
116 145 166 174 190 116 100 95 97 131 220 225 244 270 282 275 252 144 116 95 322 337 331 70 58 29 16 358 338 343 49 63 17 326 331 347 346 342 350 2 11 12 10 11 10 10 13 13 9 8 4 359 359 354 350 350 337 321 325 336 345 356 9 29 32 23 25 36 28 220 201 205 202 188 180 179 181 182 182 180 178 181 196 245 311 326
47 55 119 130 147 118 117 135 163 187 221 238 250 275 297 270 215 107 83 46 310 337 329 92 79 53 50 38 355 18 67 73 273 281 319 339 335 330 332 348 4 6 4 6 9 9 9 8 3 1 2 3 5 4 358 351 337 315 304 308 309 311 318 316 312 338 2 18 8 9 194 204 205 199 196 198 198 198 200 197 192 208 273 298 306 310
32 24 52 98 135 142 130 134 164 190 225 270 262 280 306 287 138 101 93 239 259 339 342 86 86 56 51 62 48 62 86 139 236 285 319 327 324 326 334 344 352 355 354 357 1 360 360 360 356 354 355 358 0 1 359 352 340 323 312 310 297 280 279 261 239 245 266 269 287 334 40 198 212 211 210 210 207 203 202 202 206 237 278 289 291 290
19 17 50 109 109 91 112 110 89 221 257 310 294 300 322 351 126 134 215 223 193 350 7 90 91 71 55 60 62 76 141 214 237 276 301 314 319 323 331 335 335 336 339 340 341 341 341 343 345 343 340 338 341 347 353 352 344 332 325 321 306 289 290 285 260 253 257 253 252 250 238 240 242 223 213 211 208 202 200 207 224 247 260 263 264 265
10 8 23 63 50 43 99 104 85 184 330 339 318 321 348 29 162 193 220 193 145 147 141 99 103 119 94 71 82 231 264 280 287 294 305 314 312 308 317 325 327 328 329 329 329 331 329 326 326 324 319 320 322 327 336 341 340 338 334 326 315 304 302 304 293 278 269 261 259 252 238 236 239 234 227 225 219 212 214 228 242 253 255 253 253 253
32 32 16 24 31 39 66 78 111 157 324 333 330 353 18 68 163 163 95 71 121 145 143 127 139 159 139 51 313 286 296 312 318 319 320 318 316 317 320 323 323 321 323 324 324 325 323 317 315 313 310 310 309 311 317 322 322 325 327 325 321 311 301 298 297 291 280 267 258 250 236 229 230 229 229 231 230 223 216 218 230 252 267 267 258 250
20 74 146 320 356 49 83 83 123 201 310 338 26 78 49 49 134 136 116 26 349 169 153 134 147 216 182 185 298 296 300 308 311 316 320 317 317 320 320 322 323 322 323 324 324 326 325 316 310 308 305 302 300 301 304 304 302 303 304 309 316 317 304 294 290 287 281 269 256 248 240 235 234 236 237 235 232 230 224 225 243 262 275 279 268 256
13 96 128 99 44 80 113 127 152 205 316 13 58 99 101 34 44 132 147 145 223 215 166 128 110 302 236 193 278 288 280 289 297 301 302 302 305 310 313 317 322 324 326 327 329 332 331 324 317 312 306 300 298 297 296 294 289 285 286 291 299 309 310 304 294 286 279 271 261 254 253 250 244 240 239 236 235 240 244 251 264 273 277 281 281 272
26 83 92 94 102 86 67 71 118 134 89 55 49 53 92 73 105 149 145 149 172 184 156 140 161 256 227 183 263 289 273 281 293 294 295 301 304 310 315 318 321 327 331 331 330 330 329 327 325 321 315 309 305 303 300 294 283 277 279 284 286 289 296 303 303 297 286 272 263 258 258 255 245 233 226 226 229 235 240 246 256 265 271 279 288 291
331 69 81 101 126 110 91 126 161 154 154 155 127 333 334 332 320 145 144 155 158 142 120 135 181 261 283 5 339 307 288 296 309 305 306 313 310 311 316 315 316 322 324 322 322 322 321 321 320 317 315 311 309 310 309 302 290 281 279 281 280 280 281 284 290 298 298 284 268 258 253 247 238 227 220 219 220 223 226 230 238 245 254 268 280 284
333 52 82 98 96 104 159 196 198 192 210 214 190 281 282 308 3 32 74 111 109 78 30 14 15 15 10 1 352 338 319 320 327 319 313 312 307 307 308 307 308 312 313 313 314 314 313 312 309 307 306 304 304 308 308 304 298 292 286 282 279 278 278 276 275 279 283 284 280 268 252 239 230 225 222 221 220 220 223 227 233 239 248 260 268 271
6 38 99 103 67 44 312 271 142 137 274 296 330 316 281 232 156 101 39 54 68 52 22 20 28 35 29 7 354 355 340 321 314 311 308 304 304 304 304 304 306 309 309 310 309 307 305 302 299 298 297 296 297 301 301 298 296 293 290 287 284 280 276 273 271 269 268 270 274 275 270 256 237 224 220 219 218 218 221 224 228 234 241 249 254 259
51 52 88 90 88 158 250 230 150 146 230 252 249 289 274 215 162 149 145 99 69 41 39 44 38 28 19 6 353 345 331 311 308 309 304 299 301 303 304 306 307 306 307 307 306 304 301 297 295 294 292 292 294 294 293 291 290 289 288 287 287 283 274 267 265 264 261 260 262 265 268 270 262 243 227 222 219 215 215 218 223 228 232 238 243 249
124 163 164 131 147 211 228 212 173 148 193 219 204 230 248 214 149 143 161 160 120 103 115 108 70 5 342 337 335 329 314 306 312 314 307 301 303 303 302 303 304 304 305 305 304 302 300 299 298 295 293 293 294 292 288 286 285 284 284 283 282 281 274 265 259 257 257 258 259 259 261 264 261 248 236 232 226 218 213 212 216 222 228 232 236 241
Height
751 758 764 763 762 759 757 759 759 760 764 766 767 767 766 768 762 752 744 736 737 745 748 749 747 751 758 757 756 757 760 764 766 766 765 765 767 769 770 770 768 768 766 766 768 771 773 775 777 778 780 781 782 784 785 786 787 788 788 789 791 792 795 796 796 797 797 798 800 802 804 806 807 808 808 809 809 810 811 812 813 813 813 814 815 816
754 764 763 756 755 754 757 762 761 761 764 765 767 767 766 766 757 746 742 739 738 744 750 750 747 752 757 756 756 757 760 763 764 766 766 765 767 768 769 769 768 767 767 768 769 770 772 774 775 777 779 780 781 782 784 785 786 787 788 788 790 793 795 796 796 797 797 799 801 803 805 807 808 809 810 810 811 811 812 813 813 814 814 815 815 816
762 764 756 752 756 759 761 763 763 763 764 765 767 767 765 762 755 746 740 740 739 741 747 747 747 755 758 756 756 754 754 758 759 760 760 762 765 767 767 767 767 767 768 769 770 771 771 772 774 776 778 779 780 782 783 784 785 786 788 789 791 793 795 796 796 797 798 801 803 805 807 808 809 810 811 812 812 813 814 814 815 815 815 815 815 816
768 758 748 751 756 757 758 759 761 762 762 764 764 763 761 759 759 753 744 742 741 742 746 743 746 755 758 758 756 752 752 755 758 759 760 760 762 763 763 763 764 765 767 768 769 771 773 773 774 775 777 779 780 782 782 783 784 786 788 789 791 793 795 796 797 798 800 802 804 806 808 809 810 811 812 813 814 814 815 815 816 816 816 816 815 815
761 748 746 751 753 753 755 757 759 759 760 761 759 759 757 754 755 755 753 748 743 745 747 744 750 758 757 759 759 754 754 756 759 763 763 762 762 763 764 763 762 762 764 767 768 770 772 772 774 775 777 779 780 781 781 782 783 785 788 789 791 793 794 796 797 799 801 803 805 807 808 810 811 812 813 814 814 815 815 816 816 816 816 816 816 816
753 744 745 749 750 753 755 757 756 756 760 759 753 751 750 751 751 753 755 752 750 754 752 751 763 769 762 759 758 756 757 758 761 764 764 764 764 764 765 764 763 764 765 768 768 770 771 772 774 776 777 779 780 780 780 782 783 785 788 789 791 793 794 796 798 800 802 804 805 806 807 809 810 812 813 814 815 816 816 816 816 816 816 816 816 816
748 741 742 745 748 752 756 758 755 755 761 759 750 746 747 750 751 751 752 753 759 763 758 756 765 774 769 759 756 758 760 761 762 764 764 765 764 764 764 764 764 765 766 768 770 771 773 773 773 775 776 777 778 780 781 782 784 785 787 789 790 792 794 797 799 801 803 805 806 807 807 808 809 811 813 814 816 816 816 816 816 816 816 817 817 817
745 741 742 746 749 753 757 757 753 753 758 755 749 746 747 748 749 751 751 753 759 761 759 759 760 768 771 761 759 762 762 765 764 763 764 764 763 763 763 763 763 764 765 767 770 772 772 772 771 772 774 776 778 780 781 782 784 785 787 788 790 792 795 797 800 802 804 805 807 808 809 809 810 811 812 814 815 816 817 817 817 817 817 817 818 818
744 742 741 745 749 754 751 745 745 748 749 747 745 746 746 747 749 752 752 755 761 762 761 762 761 769 772 761 760 762 761 766 765 760 761 760 760 761 761 762 762 763 765 766 769 771 772 771 771 772 774 776 779 780 781 782 784 786 788 789 791 793 796 799 801 803 805 807 808 809 810 810 810 811 812 813 815 816 817 817 817 817 817 818 818 819
742 739 737 741 747 747 740 736 740 742 743 742 743 746 747 750 755 758 758 756 761 768 769 768 767 773 775 760 754 757 757 760 760 755 755 755 755 758 759 761 762 762 764 765 768 771 772 772 772 773 774 776 778 779 781 782 784 786 789 790 792 796 798 801 803 804 806 807 808 809 810 810 810 812 813 813 814 816 816 817 817 817 818 818 819 819
739 735 736 738 738 737 732 736 742 739 738 740 743 746 749 754 758 761 765 760 767 778 774 774 772 773 778 766 754 755 754 755 755 750 749 751 754 757 758 759 759 760 762 764 767 771 773 774 774 773 774 776 777 779 781 782 784 787 790 791 793 797 799 801 802 803 804 805 806 808 809 809 810 811 812 813 814 815 816 816 817 817 818 818 819 819
741 737 737 732 729 731 730 736 742 740 740 742 745 749 754 762 764 765 769 767 777 786 776 775 776 773 778 769 756 755 753 755 756 747 744 748 752 756 757 757 757 759 761 764 767 771 773 774 774 774 774 776 777 778 779 781 785 789 790 790 792 794 796 796 796 797 799 801 804 806 808 809 809 810 811 812 814 815 816 816 817 817 817 818 819 820
743 737 736 732 727 728 731 738 743 742 743 743 747 755 763 774 776 776 780 780 783 784 776 777 777 774 774 764 756 757 754 756 756 748 746 748 750 752 755 756 757 759 761 764 767 770 772 773 774 774 774 775 776 777 779 782 786 788 787 787 788 789 790 791 792 793 796 799 803 806 808 810 810 811 811 812 813 815 816 816 817 817 817 818 819 820
747 741 737 734 730 726 730 740 745 745 745 744 747 755 765 778 786 790 795 796 790 780 777 779 776 774 773 765 761 762 759 757 754 750 749 750 751 753 755 757 759 761 762 764 767 769 770 772 772 773 774 774 775 777 779 782 786 786 785 786 786 785 786 788 789 792 795 800 803 806 810 812 813 813 813 813 814 815 816 817 818 818 818 819 820 821
756 753 740 735 733 728 728 732 735 738 743 746 746 750 758 767 775 783 786 786 785 781 781 780 776 775 773 768 765 763 760 759 755 753 752 752 754 756 758 761 763 765 766 767 769 770 771 772 772 773 774 774 775 776 778 782 785 784 784 785 784 783 784 786 790 794 798 802 804 807 811 813 815 816 815 814 815 816 817 818 818 819 819 820 821 822
758 754 737 731 732 729 730 729 728 732 742 752 751 749 754 753 756 773 784 782 781 781 781 779 777 777 773 766 763 763 761 759 757 757 755 755 758 759 762 766 768 770 773 773 772 772 773 773 773 774 774 775 775 776 778 781 784 784 784 784 783 783 785 789 797 803 806 808 808 808 810 812 813 815 815 815 816 817 817 818 819 820 821 822 822 823
756 751 736 731 731 727 729 728 727 733 742 751 752 749 752 749 748 767 787 789 785 781 783 783 779 776 775 767 762 763 764 763 762 761 760 759 759 761 765 767 769 773 779 782 778 775 774 774 773 774 774 775 775 776 777 780 783 784 783 784 784 785 787 793 800 805 806 807 808 809 810 811 812 813 814 815 816 817 818 819 820 822 823 823 824 824
748 749 741 735 733 728 727 727 726 731 737 746 750 746 749 753 752 761 778 789 791 788 786 787 785 781 781 776 767 763 766 767 767 766 766 764 762 764 769 770 771 773 778 782 780 777 777 775 774 774 774 774 775 775 776 778 782 784 784 784 785 787 790 794 799 800 802 804 807 809 810 810 811 812 814 816 817 818 819 820 821 822 823 824 825 826
743 748 745 738 737 732 726 728 733 734 733 739 744 741 745 755 758 763 774 784 792 795 791 790 792 788 782 778 771 766 768 770 770 769 768 769 769 768 769 771 775 775 775 778 779 779 778 776 775 774 773 774 774 775 776 778 781 784 786 786 787 789 792 795 798 799 801 804 805 806 808 809 811 812 813 815 817 819 820 821 821 822 824 825 825 826
743 750 749 740 737 736 732 736 746 746 737 736 740 741 744 752 758 762 770 774 780 793 797 791 791 787 777 774 772 768 769 770 770 771 770 771 772 771 770 773 777 777 777 779 779 779 778 777 776 774 773 774 774 775 776 778 782 785 786 787 788 790 792 794 797 798 800 802 803 804 806 808 810 811 813 814 816 818 819 821 822 822 823 824 825 826
744 750 752 742 737 742 744 745 750 751 745 743 746 749 751 756 761 762 769 774 772 780 792 792 792 786 772 771 772 769 769 769 768 769 771 772 772 771 772 775 779 779 780 781 780 779 779 777 776 774 774 775 775 776 777 778 782 785 786 787 788 790 792 793 795 796 798 800 801 803 804 806 809 811 813 814 815 817 818 821 822 822 823 824 825 826
743 748 750 748 746 749 751 746 745 746 747 749 753 759 761 760 761 763 773 780 773 774 783 787 791 784 770 770 774 770 769 770 768 768 769 771 771 772 775 777 780 783 782 781 780 778 778 777 776 776 776 777 777 777 778 779 782 784 786 787 789 790 791 792 793 794 796 798 800 802 804 805 807 809 812 813 815 816 818 820 821 822 823 824 825 826
742 746 749 754 755 755 753 749 748 747 747 748 752 760 762 760 760 761 769 774 774 779 783 782 787 781 769 771 773 769 770 772 771 770 769 772 774 775 777 778 781 784 782 781 781 781 781 780 780 779 778 778 778 777 778 779 781 783 785 787 788 790 790 790 792 793 795 798 800 803 805 805 806 808 810 811 813 815 817 818 820 821 822 823 824 826
742 747 753 758 759 757 753 749 749 747 748 751 756 759 761 761 762 763 766 768 771 779 780 779 788 782 770 774 774 770 772 773 774 773 772 775 777 778 779 779 781 784 784 784 785 784 784 783 783 782 780 779 778 777 778 780 781 783 784 786 788 789 789 790 791 793 795 797 799 802 804 804 805 806 807 809 811 814 816 817 818 819 820 821 823 826
744 752 755 759 766 768 764 759 754 751 753 759 763 763 762 762 763 765 770 768 770 781 779 776 787 785 774 776 778 774 775 776 777 779 777 778 780 780 782 782 784 786 788 788 787 785 785 784 784 783 782 781 780 779 779 780 782 783 784 785 786 787 789 790 791 793 794 797 799 801 801 802 803 804 805 807 809 812 813 815 816 818 818 819 821 824
747 757 756 756 765 772 772 770 764 761 763 767 767 766 765 764 761 761 767 767 770 783 783 776 783 784 777 779 782 781 780 779 780 781 780 781 781 782 783 784 786 787 788 788 786 785 785 785 785 784 783 783 782 781 781 781 783 784 785 785 786 787 788 790 792 793 794 796 797 798 799 799 801 803 804 806 808 810 812 813 815 816 817 817 818 821
750 761 761 757 759 762 765 766 764 763 767 769 768 766 767 769 765 763 767 769 773 781 784 781 783 784 785 789 790 788 786 784 784 783 782 782 782 782 783 784 785 787 787 786 785 785 786 786 786 786 785 785 784 784 783 783 784 785 786 787 787 787 788 790 792 794 795 796 796 797 797 799 801 803 804 806 808 809 811 813 814 815 815 815 816 819
750 760 764 764 763 764 764 763 762 764 769 773 772 770 771 771 767 763 767 773 775 777 783 787 786 787 794 799 798 797 793 789 788 788 787 786 786 785 785 785 785 786 786 786 787 787 787 787 787 787 787 786 786 786 785 785 785 786 787 788 788 789 789 791 792 794 795 797 796 797 798 799 801 802 803 805 806 808 810 812 813 813 814 814 815 817
750 760 764 766 769 771 770 767 767 769 776 782 781 778 776 773 769 768 774 781 778 774 783 792 793 796 803 806 804 803 799 794 793 794 793 792 791 789 787 787 787 787 788 789 789 790 790 790 790 790 790 789 788 788 787 786 786 787 788 789 789 789 790 791 792 794 795 796 796 797 798 799 801 802 803 804 805 807 808 810 811 812 813 814 816 817
753 763 765 764 769 775 775 773 770 772 781 788 788 787 785 783 782 781 786 791 786 785 797 801 800 805 811 810 807 804 801 799 797 797 797 797 798 795 792 792 792 792 791 792 793 794 794 794 793 793 793 792 791 790 788 788 788 788 789 789 790 790 791 792 793 794 795 796 796 797 798 799 800 800 801 802 804 806 807 808 811 813 813 813 815 817
752 763 767 763 768 776 777 775 774 775 782 787 788 791 789 785 787 789 793 796 792 797 806 802 799 807 810 809 809 805 802 800 799 800 802 802 802 801 799 800 800 798 797 796 796 797 796 796 796 795 795 795 795 793 792 790 790 790 790 790 791 791 792 794 795 796 796 796 797 798 799 799 800 800 800 801 804 806 807 808 810 811 812 811 813 816
750 763 768 763 768 777 778 779 779 777 780 784 787 792 791 787 791 798 803 804 799 798 800 795 799 810 811 809 810 807 803 803 804 805 806 805 804 804 803 804 804 803 802 801 800 800 799 799 798 798 798 797 797 796 796 794 793 792 792 792 792 792 793 794 795 796 797 797 798 799 799 800 800 800 801 802 804 805 806 807 809 809 810 811 812 814
755 760 765 766 771 778 780 782 780 775 776 784 791 797 800 799 800 804 809 813 809 803 799 798 806 814 814 812 812 809 807 808 809 809 809 809 808 806 806 806 806 806 805 804 803 802 802 801 800 800 799 798 798 798 798 798 796 795 794 794 793 793 793 794 794 795 796 797 798 798 799 800 800 801 801 802 804 805 805 806 807 808 809 810 811 812
760 758 765 771 771 776 782 783 781 778 781 792 799 800 801 802 802 805 813 818 815 810 807 809 813 815 814 814 814 813 812 812 812 812 812 811 811 809 809 809 808 807 807 806 806 804 803 803 802 801 801 800 799 798 798 799 799 798 797 796 795 794 794 794 794 795 795 796 796 797 798 799 800 801 802 803 803 804 804 804 805 806 807 808 809 810
760 760 768 774 773 780 786 781 780 785 792 801 806 804 803 805 805 808 816 820 816 814 814 814 815 815 814 814 814 814 815 814 813 813 812 812 812 811 810 810 810 809 809 808 807 806 805 804 802 802 803 802 801 799 799 800 800 799 799 798 797 796 795 795 795 795 795 795 795 796 797 798 799 800 801 802 802 803 803 803 804 805 806 807 808 809
759 762 769 775 779 785 785 781 784 796 804 807 808 807 807 807 804 803 812 819 817 817 816 814 816 817 815 814 813 813 815 815 814 814 814 813 813 812 812 812 811 811 810 809 809 808 806 806 804 804 805 806 804 802 800 800 801 801 800 799 799 798 796 796 796 795 795 795 795 795 795 796 797 798 800 801 801 802 803 803 804 805 806 807 808 809
760 762 765 772 782 785 787 796 807 812 812 809 807 807 807 806 803 803 812 820 819 818 818 816 815 817 816 814 814 814 815 814 813 814 815 815 815 815 814 813 812 812 811 810 809 808 807 807 807 806 807 807 806 803 802 802 803 803 802 801 800 799 798 797 797 797 797 796 795 795 795 796 796 797 799 800 801 802 803 803 804 805 806 807 808 808
764 764 762 768 783 789 792 808 821 819 812 807 805 805 805 806 808 807 811 819 819 818 821 818 816 818 817 815 815 816 814 814 815 817 817 816 817 817 816 815 814 813 812 811 810 809 808 807 807 807 807 806 806 805 803 803 804 804 803 802 801 801 800 799 798 799 798 797 797 796 796 796 797 797 798 799 800 801 802 803 804 805 806 807 807 808
767 771 767 767 781 788 784 792 808 812 809 809 808 807 806 809 811 808 810 819 821 820 820 819 817 818 818 817 817 815 813 815 818 820 819 818 818 818 817 816 815 814 813 812 811 810 809 808 807 806 806 806 806 805 804 804 804 803 802 802 801 802 802 802 801 800 799 798 798 798 797 797 798 798 799 799 800 800 801 802 803 804 805 806 806 807
772 777 776 772 779 786 782 789 806 813 811 812 810 807 807 811 811 807 809 817 822 821 821 820 818 819 820 820 819 817 817 820 822 821 819 819 819 817 817 816 815 814 813 812 811 810 809 808 807 806 805 805 805 805 805 804 803 803 802 802 801 801 801 801 801 800 799 799 798 798 798 798 798 799 799 799 799 800 800 801 802 803 804 805 806 806
785 786 787 786 789 790 791 804 820 820 813 811 809 808 809 809 808 808 812 818 821 822 822 821 821 821 821 820 819 820 821 823 823 821 820 820 818 817 816 815 814 813 813 811 811 810 809 808 807 806 806 805 805 805 804 804 803 802 801 801 800 800 800 799 799 799 798 798 798 797 797 798 798 799 799 799 799 799 800 801 802 803 804 805 806 806
796 796 797 799 801 800 802 813 823 820 814 811 810 809 807 806 809 815 818 820 822 822 822 822 821 822 821 821 821 822 822 822 822 821 820 819 818 817 815 814 813 811 811 810 809 808 807 806 806 805 805 804 804 803 803 803 802 801 800 799 798 798 797 797 797 797 796 796 796 796 796 797 798 798 799 799 799 799 799 800 801 802 803 804 805 806
801 803 806 808 807 807 810 815 818 818 816 812 810 811 811 813 818 822 822 822 822 822 823 823 822 822 822 822 822 822 822 821 821 820 819 818 817 815 814 813 812 811 809 809 808 807 806 805 804 803 803 802 802 802 802 801 800 800 799 797 796 795 795 794 794 794 794 794 794 794 794 795 796 797 797 797 798 798 798 799 801 802 802 803 804 805
802 804 808 812 812 812 816 821 822 822 821 815 812 816 819 819 820 821 821 822 823 823 823 823 823 824 824 823 823 824 823 822 821 820 820 818 817 815 814 812 812 810 809 808 806 806 805 803 802 801 800 800 800 800 799 799 798 798 797 796 795 794 793 792 792 791 791 791 791 792 792 793 794 795 796 796 796 796 797 798 799 800 801 802 803 804
805 803 806 813 818 817 819 824 826 824 822 818 816 819 820 819 820 821 821 822 823 823 823 823 823 824 824 824 824 824 823 822 822 821 820 819 817 816 815 813 812 811 809 807 805 804 803 802 800 799 798 797 797 797 797 796 796 795 794 794 794 793 791 790 789 788 788 788 789 789 789 790 790 792 793 793 794 795 795 796 797 798 798 799 800 801
807 805 806 814 821 821 821 823 824 822 822 821 819 820 820 820 821 821 821 822 823 823 823 823 823 824 824 824 824 823 823 822 822 821 820 819 818 816 815 813 812 811 809 807 805 804 802 800 799 797 796 795 795 795 794 794 793 792 791 791 791 791 790 789 787 786 786 786 786 786 786 786 787 788 789 790 791 792 793 794 795 796 797 797 798 799
806 805 807 813 818 820 822 825 823 822 823 822 821 822 822 821 822 822 822 822 823 823 823 824 823 824 823 823 823 823 822 822 821 821 820 819 817 816 814 813 811 810 809 808 806 804 802 800 798 796 794 793 792 792 792 791 790 789 788 788 788 788 787 787 786 785 784 783 783 783 783 783 783 784 785 786 787 789 790 791 793 794 794 795 796 797
807 805 808 814 817 819 822 823 823 823 824 824 824 824 823 822 823 823 823 823 823 823 824 824 823 824 823 823 823 823 822 822 821 821 820 818 817 815 814 812 810 809 807 806 805 804 801 799 797 795 793 791 790 789 789 787 787 787 786 786 786 785 785 784 784 783 783 782 782 782 781 781 781 781 782 783 785 786 787 788 789 790 792 793 794 795
810 808 811 817 822 824 823 822 823 826 827 826 825 825 824 824 824 824 824 825 824 824 824 824 824 824 824 824 824 823 822 822 821 820 819 818 816 814 813 811 809 807 806 804 803 802 800 798 796 793 790 788 787 787 785 784 783 783 783 783 783 783 782 781 781 781 780 780 780 780 780 780 779 779 780 781 782 783 784 786 787 788 789 791 792 793
811 812 816 818 821 822 821 820 822 824 824 824 826 825 824 824 824 825 825 825 824 824 824 824 825 824 824 824 824 823 822 822 820 820 819 817 815 814 812 810 808 806 804 802 800 799 797 796 793 791 788 785 785 784 782 780 779 779 779 779 779 779 779 778 778 778 777 777 777 778 778 778 778 778 778 779 779 781 782 783 785 786 787 789 790 791
812 813 814 815 816 817 817 818 820 821 820 822 825 825 824 825 825 825 825 825 825 825 825 825 825 825 824 824 823 822 822 821 819 819 817 815 814 812 810 808 807 804 802 800 798 796 794 792 791 788 785 783 782 780 778 776 774 774 774 775 776 776 776 775 775 774 774 774 774 774 775 776 776 776 777 777 778 779 780 781 783 784 785 786 788 789